User: anonymous   Login
Location: Unspecified
(0.0000°N, 0.0000°E)
Time: 15:28:22
(UTC+00:00)
Language:

Kitsat-3 - Orbit

View from above orbital plane
View from above orbital plane
View from above satellite
View from above satellite

Ground track
Ground track

The orbit data is extracted from the following two-line orbital elements,

1 25756U 99029A   17229.19339401 -.00000001  00000-0  10908-4 0  9999
2 25756  98.4092 149.0603 0014864  56.5698 303.6917 14.53675530966351
Epoch (UTC): 17 August 2017 04:38:29
Eccentricity: 0.0014864
inclination: 98.4092°
perigee height: 703 km
apogee height: 724 km
right ascension of ascending node: 149.0603°
argument of perigee: 56.5698°
revolutions per day: 14.53675530
mean anomaly at epoch: 303.6917°
orbit number at epoch: 96635

The dashed part of the orbit path shows where the satellite is in the earth's shadow,  

DLR